This is the latest recevied weather packets stored in our database for station/object OE3APM-13. If no packets are shown the sender has not sent any weather packets the latest 1 day(s).
| Time | Temp. | Humidity | Pressure | Rain* | Wind** | Luminosity | Snow |
|---|---|---|---|---|---|---|---|
| 1777968638 | 20.56° C | 48% | 1008.4 hPa | 0 mm | 1.79 m/s, 87° | 677 W/m² | - |
| 1777968336 | 20.56° C | 52% | 1008.3 hPa | 0 mm | 1.34 m/s, 92° | 663 W/m² | - |
| 1777968036 | 20° C | 50% | 1008.3 hPa | 0 mm | 0.89 m/s, 122° | 650 W/m² | - |
| 1777967737 | 19.44° C | 49% | 1008.3 hPa | 0 mm | 1.34 m/s, 32° | 642 W/m² | - |
| 1777967435 | 19.44° C | 51% | 1008.4 hPa | 0 mm | 1.34 m/s, 69° | 631 W/m² | - |
| 1777967136 | 18.89° C | 51% | 1008.4 hPa | 0 mm | 1.79 m/s, 355° | 622 W/m² | - |
| 1777966842 | 18.89° C | 52% | 1008.4 hPa | 0 mm | 1.79 m/s, 21° | 577 W/m² | - |
| 1777966536 | 18.33° C | 53% | 1008.4 hPa | 0 mm | 1.34 m/s, 27° | 575 W/m² | - |
| 1777966235 | 18.33° C | 52% | 1008.4 hPa | 0 mm | 1.34 m/s, 17° | 561 W/m² | - |
| 1777965937 | 17.78° C | 52% | 1008.5 hPa | 0 mm | 1.34 m/s, 31° | 561 W/m² | - |
| 1777965640 | 17.78° C | 53% | 1008.6 hPa | 0 mm | 1.34 m/s, 21° | 490 W/m² | - |
| 1777965334 | 17.78° C | 55% | 1008.7 hPa | 0 mm | 1.34 m/s, 9° | 548 W/m² | - |
| 1777965032 | 17.78° C | 53% | 1008.7 hPa | 0 mm | 1.79 m/s, 17° | 538 W/m² | - |
| 1777964732 | 17.22° C | 52% | 1008.7 hPa | 0 mm | 1.79 m/s, 28° | 519 W/m² | - |
| 1777964431 | 17.22° C | 54% | 1008.8 hPa | 0 mm | 1.79 m/s, 22° | 497 W/m² | - |
| 1777964132 | 17.22° C | 54% | 1008.7 hPa | 0 mm | 1.79 m/s, 9° | 473 W/m² | - |
| 1777963833 | 17.22° C | 54% | 1008.8 hPa | 0 mm | 1.34 m/s, 13° | 469 W/m² | - |
| 1777963529 | 17.22° C | 54% | 1008.8 hPa | 0 mm | 1.34 m/s, 19° | 424 W/m² | - |
| 1777963232 | 17.22° C | 54% | 1008.8 hPa | 0 mm | 0.89 m/s, 5° | 462 W/m² | - |
| 1777962931 | 16.67° C | 56% | 1008.9 hPa | 0 mm | 0.89 m/s, 57° | 445 W/m² | - |
| 1777962631 | 16.11° C | 57% | 1008.9 hPa | 0 mm | 0.89 m/s, 69° | 431 W/m² | - |
| 1777962332 | 16.11° C | 59% | 1008.9 hPa | 0 mm | 0.89 m/s, 18° | 415 W/m² | - |
| 1777962031 | 15.56° C | 60% | 1009 hPa | 0 mm | 0.45 m/s, 28° | 401 W/m² | - |
| 1777961725 | 15° C | 63% | 1009 hPa | 0 mm | 0.45 m/s, 44° | 388 W/m² | - |
| 1777961425 | 14.44° C | 67% | 1009 hPa | 0 mm | 0.89 m/s, 44° | 380 W/m² | - |
* Rain latest hour (hover to see other rain measurements)
** Current wind speed in m/s (hover to see current wind gust speed)